Regional Weather Roundup
Issued by NWS San Angelo, TX

Current Version | Previous Version | Text Only | Print | Product List | Glossary On
Versions: 1 2 3 4 5 6 7 8 9 10 11 12 13 14 15 16 17 18 19 20 21 22 23 24 25 26 27
000
ASUS44 KSJT 301310
RWRSJT
WEST CENTRAL TEXAS REGIONAL WEATHER ROUNDUP
NATIONAL WEATHER SERVICE SAN ANGELO TX
800 AM CDT FRI SEP 30 2022

NOTE: "FAIR" INDICATES FEW OR NO CLOUDS BELOW 12,000 FEET WITH NO
SIGNIFICANT WEATHER AND/OR OBSTRUCTIONS TO VISIBILITY.

TXZ049-054-064>066-071>073-076>078-098-099-113-114-127-128-139-140-
154-155-168>170-301400-
...LOCATIONS ACROSS WEST CENTRAL TEXAS...

CITY           SKY/WX    TMP DP  RH WIND       PRES   REMARKS
SAN ANGELO     CLEAR     53  41  63 S3        30.10R
ABILENE        CLEAR     62  47  57 SE9       30.11R
DYESS AFB      CLEAR     60  44  56 S8        30.08S
JUNCTION       CLEAR     54  47  77 W3        30.12R
SWEETWATER     CLEAR     64  41  43 S6        30.14S
BROWNWOOD      NOT AVBL
COLEMAN        SUNNY     60  47  61 CALM      30.12S
SAN SABA       SUNNY     60  45  57 E7        30.12S
SONORA         CLEAR     50  43  76 CALM      30.15S
OZONA          FAIR      52  41  66 N3        30.14S
BRADY          CLEAR     59  46  63 E7        30.11R
$$

TXZ001-004-007-008-010-012-014-016-OKZ002-301400-
TEXAS PANHANDLE/OKLAHOMA PANHANDLE

CITY           SKY/WX    TMP DP  RH WIND       PRES   REMARKS
AMARILLO       CLEAR     62  42  47 W9        30.13R
BORGER         CLEAR     63  44  50 S7        30.11S
CANADIAN       CLEAR     57  45  63 S7        30.11S
DALHART        PTCLDY    55  41  59 SW9       30.13S
DUMAS          MOSUNNY   59  39  47 SW14      30.12S
GUYMON         NOT AVBL
HEREFORD       MOSUNNY   56  43  61 W8        30.16S
PAMPA          SUNNY     55  48  76 S8        30.13R
PERRYTON       PTCLDY    55  43  65 SE10      30.09R
$$

TXZ035-026-045-048-301400-
SOUTHERN PANHANDLE/SOUTH PLAINS/ROLLING PLAINS

CITY           SKY/WX    TMP DP  RH WIND       PRES   REMARKS
LUBBOCK        MOCLDY    56  43  61 NW5       30.14S
SNYDER         CLEAR     63  41  44 CALM      30.12S
CHILDRESS      CLEAR     58  46  64 SE9       30.11S
SEMINOLE       SUNNY     56  43  61 NW3       30.19S
$$

TXZ060>062-301400-
PERMIAN BASIN

CITY           SKY/WX    TMP DP  RH WIND       PRES   REMARKS
MIDLAND        CLEAR     57  45  64 NW3       30.12R HAZE
ODESSA         CLEAR     60  45  57 NW6       30.12S
WINK           CLEAR     53  43  68 NE3       30.10S
$$

TXZ075-082-271-274-277-419-301400-
FAR WEST/SOUTHWEST MOUNTAINS/TRANS PECOS

CITY           SKY/WX    TMP DP  RH WIND       PRES   REMARKS
ALPINE         SUNNY     52  42  68 SW6       30.24S
DRYDEN           N/A     58  49  72 NW5       30.12R
EL PASO        MOCLDY    61  39  44 CALM      30.12S
FORT STOCKTON  CLEAR     62  44  51 S12       30.12R
GUADALUPE PASS MOCLDY    64  40  41 CALM      30.23S
MARFA          CLEAR     46  39  76 N7        30.23S
PECOS          MOSUNNY   58  42  55 CALM      30.11R
$$

TXZ118-119-301400-
DALLAS/FORT WORTH METROPLEX

CITY           SKY/WX    TMP DP  RH WIND       PRES   REMARKS
DFW AIRPORT    CLEAR     59  44  57 SE6       30.12R
FTW MEACHAM    CLEAR     60  46  59 E6        30.12S
DAL-EXECUTIVE  CLEAR     57  47  69 E5        30.13R
GRAND PRAIRIE  CLEAR     59  45  58 CALM      30.15R
ADDISON        CLEAR     61  43  51 E7        30.14R
MESQUITE       SUNNY     54  45  71 CALM      30.15R
LANCASTER      SUNNY     55  45  70 CALM      30.15R
$$

TXZ092-093-103-131-134-301400-
NORTH CENTRAL TEXAS

CITY           SKY/WX    TMP DP  RH WIND       PRES   REMARKS
SHRMAN/DENISON SUNNY     54  45  71 CALM      30.18R
GAINESVILLE    CLEAR     55  42  60 SE3       30.16S
BRIDGEPORT     SUNNY     51  48  90 CALM      30.15S
DENTON         CLEAR     58  46  64 CALM      30.14S
WAXAHACHIE     SUNNY     54  47  78 CALM      30.15R
GRANBURY       SUNNY     57  46  67 SE3       30.14S
$$

TXZ085-086-115-141-301400-
WESTERN NORTH TEXAS

CITY           SKY/WX    TMP DP  RH WIND       PRES   REMARKS
WICHITA FALLS  PTCLDY    55  47  74 E8        30.12R
VERNON         NOT AVBL
BRECKENRIDGE   SUNNY     64  44  48 SE7       30.11R
COMANCHE       CLEAR     56  46  67 SE5       30.12F
$$

TXZ145-158-159-173-191-192-194-205-207-220-223-301400-
CENTRAL AND SOUTH CENTRAL TEXAS

CITY           SKY/WX    TMP DP  RH WIND       PRES   REMARKS
AUSTIN/BERGSTM CLEAR     58  49  72 CALM      30.09R
WACO           CLEAR     55  47  74 VRB5      30.12S
HILLSBORO      SUNNY     53  44  71 CALM      30.13R
TEMPLE         CLEAR     56  44  64 NE5       30.12S
KILLEEN-GRAY   CLEAR     61  43  53 E5        30.08R
FORT HOOD      CLEAR     60  43  54 CALM      30.11S
GEORGETOWN     CLEAR     60  46  59 CALM      30.12S
LAGO VISTA       N/A     60  44  55 E7        30.11S
SAN MARCOS     CLEAR     61  46  59 N6        30.11
NEW BRAUNFELS  CLEAR     62  50  64 NE5       30.08R
RANDOLPH AFB   CLEAR     62  53  72 NE6       30.06R
SAN ANTONIO    CLEAR     64  54  69 NE6       30.09R
STINSON        CLEAR     66  57  72 NE8       30.06R
PLEASANTON     NOT AVBL
LA GRANGE      NOT AVBL
GIDDINGS       SUNNY     58  46  65 CALM      30.10R
$$

TXZ095-096-136-137-148-152-301400-
EAST TEXAS

CITY           SKY/WX    TMP DP  RH WIND       PRES   REMARKS
PARIS          CLEAR     53  42  66 NE7       30.17R
CLARKSVILLE    NOT AVBL
TYLER          CLEAR     54  44  69 CALM      30.13R
LONGVIEW       CLEAR     48  44  86 CALM      30.12S
PALESTINE      SUNNY     55  45  67 NE6       30.11R
NACOGDOCHES    CLEAR     54  45  71 N3        30.12S
$$

TXZ171-183-184-186-188-203-204-301400-
TEXAS HILL COUNTRY AND EDWARDS PLATEAU

CITY           SKY/WX    TMP DP  RH WIND       PRES   REMARKS
LLANO          SUNNY     59  48  67 E3        30.11R
HORSESHOE BAY  FAIR      61  46  57 CALM      30.11R
KERRVILLE      CLEAR     53  48  83 CALM      30.11S
FREDERICKSBRG  CLEAR     55  47  75 CALM      30.11S
ROCKSPRINGS    SUNNY     66  48  52 CALM      30.16R
HONDO          CLEAR     60  47  61 NE5       30.07S
UVALDE         SUNNY     58  50  75 NE5       30.09R
DEL RIO        CLEAR     60  54  80 CALM      30.05S
$$

TXZ163-177-195>197-199-213-226-237-301400-
SOUTHEAST TEXAS

CITY           SKY/WX    TMP DP  RH WIND       PRES   REMARKS
COLLEGE STN    CLEAR     60  47  61 CALM      30.10R
CALDWELL       SUNNY     55  48  76 N3        30.11R
CROCKETT       SUNNY     54  46  76 NE5       30.11S
BRENHAM        CLEAR     57  50  76 CALM      30.10
HUNTSVILLE     CLEAR     53  46  77 CALM      30.10R
CONROE         CLEAR     50  48  93 MISG      30.10R
HOUSTON BUSH   CLEAR     57  49  74 N5        30.09R
HOUSTON HOBBY  CLEAR     64  46  52 NE9       30.08R
PERLAND        CLEAR     60  49  66 NE3       30.09R
WHARTON        SUNNY     56  50  81 N3        30.08S
$$

TXZ215-216-236-237-438-301400-
THE UPPER TEXAS COAST

CITY           SKY/WX    TMP DP  RH WIND       PRES   REMARKS
ORANGE         SUNNY     56  49  79 CALM      30.10R
PORT ARTHUR    SUNNY     57  46  66 N8        30.07R
GALVESTON      CLEAR     66  52  60 NE12      30.07R
ANGLETON       CLEAR     56  51  84 N7        30.07R
BAY CITY       SUNNY     59  50  73 NE7       30.07R
$$

TXZ229-232-234-239-242-243-245-247-249-250-
253-255-257-343-347-443-301400-
TEXAS COASTAL BEND, RIO GRANDE PLAINS DEEP SOUTH TEXAS

CITY           SKY/WX    TMP DP  RH WIND       PRES   REMARKS
VICTORIA       CLEAR     59  52  77 NE7       30.06S
BEEVILLE       FAIR      61  56  84 NE6       30.05S
ROCKPORT       CLEAR     70  64  81 NE9       30.04S
PORT ARANSAS   SUNNY    N/A N/A N/A N10       30.05S
PORT LAVACA    NOT AVBL
CORPUS CHRISTI PTCLDY    69  64  84 NE6       30.04R
KINGSVILLE NAS PTCLDY    62  61  96 NW3       30.04R
COTULLA        CLEAR     65  52  62 NE5       30.05R
LAREDO         CLEAR     64  56  75 E5        30.04R
BROWNSVILLE    CLEAR     67  63  87 NW3       30.02S
PORT ISABEL    CLEAR     67  63  87 NW6       30.02S
HEBBRONVILLE   SUNNY     64  58  80 W5        30.06R
MCALLEN        CLEAR     66  60  81 NE3       30.04R
WESLACO        NOT AVBL


USA.gov is the U.S. government's official web portal to all federal, state and local government web resources and services.